This is the latest recevied weather packets stored in our database for station/object SP9TKN-1. If no packets are shown the sender has not sent any weather packets the latest 10 day(s).
| Time | Temp. | Humidity | Pressure | Rain* | Wind** | Luminosity | Snow |
|---|---|---|---|---|---|---|---|
| 1778048175 | 16.67° C | 53% | 1007.4 hPa | - | - | - | - |
| 1778047275 | 16.11° C | 54% | 1007.2 hPa | - | - | - | - |
| 1778046375 | 15.56° C | 55% | 1007.2 hPa | - | - | - | - |
| 1778045475 | 15.56° C | 55% | 1007.3 hPa | - | - | - | - |
| 1778044575 | 15.56° C | 55% | 1007.2 hPa | - | - | - | - |
| 1778043675 | 15° C | 55% | 1007 hPa | - | - | - | - |
| 1778042775 | 15° C | 54% | 1007.1 hPa | - | - | - | - |
| 1778041875 | 15° C | 54% | 1007.1 hPa | - | - | - | - |
| 1778040975 | 15° C | 53% | 1006.9 hPa | - | - | - | - |
| 1778040075 | 15° C | 53% | 1006.9 hPa | - | - | - | - |
| 1778039176 | 15° C | 53% | 1006.8 hPa | - | - | - | - |
| 1778038372 | 15° C | 52% | 1006.7 hPa | - | - | - | - |
| 1778038276 | 15° C | 52% | 1006.7 hPa | - | - | - | - |
| 1778037374 | 15° C | 51% | 1006.8 hPa | - | - | - | - |
| 1778036474 | 15.56° C | 49% | 1006.7 hPa | - | - | - | - |
| 1778035575 | 15.56° C | 48% | 1006.9 hPa | - | - | - | - |
| 1778034674 | 15.56° C | 48% | 1006.9 hPa | - | - | - | - |
| 1778033774 | 15.56° C | 48% | 1006.8 hPa | - | - | - | - |
| 1778032877 | 15.56° C | 47% | 1006.8 hPa | - | - | - | - |
| 1778031977 | 15.56° C | 47% | 1006.9 hPa | - | - | - | - |
| 1778031076 | 15.56° C | 47% | 1006.8 hPa | - | - | - | - |
| 1778030177 | 15.56° C | 46% | 1006.6 hPa | - | - | - | - |
| 1778029275 | 16.11° C | 46% | 1006.7 hPa | - | - | - | - |
| 1778028375 | 16.11° C | 45% | 1006.6 hPa | - | - | - | - |
| 1778027475 | 16.11° C | 45% | 1006.7 hPa | - | - | - | - |
* Rain since midnight (hover to see other rain measurements)
** Current wind speed in m/s (hover to see current wind gust speed)